Theta_e
306 307 313 319 315 315 321 322 321 322 325 328 327 330 332 332 334 332 336 335 334 331 331 331 330 331 326 327 330 326 324 320 312 313 321 332 332 332 332 327 331 331 329 323 323 323 320 319 317
308 313 318 319 310 314 313 315 319 319 328 329 331 332 333 334 333 337 336 337 336 332 331 328 328 329 326 328 328 326 322 321 314 317 317 328 331 329 331 332 330 334 325 324 325 321 319 319 318
315 318 319 311 309 311 311 315 316 319 325 329 330 333 334 334 337 337 338 337 336 334 330 317 325 328 325 329 326 328 326 322 317 319 319 317 324 326 329 334 334 334 325 325 327 321 318 318 318
319 319 317 313 313 314 314 314 314 315 319 322 328 331 335 334 336 336 337 338 337 334 323 315 326 328 324 329 325 329 327 323 320 316 316 314 315 319 324 331 335 333 329 329 324 320 319 318 318
320 319 311 311 312 314 315 316 315 313 316 328 329 332 334 336 336 335 336 336 337 332 319 320 326 326 324 327 322 325 327 325 318 313 313 312 312 313 325 334 335 334 329 327 323 320 319 317 317
318 312 309 311 313 317 315 316 315 315 326 328 329 331 333 336 337 337 335 334 336 327 324 330 327 326 325 323 326 327 328 326 318 312 311 310 311 313 327 334 334 333 330 326 321 320 318 318 318
314 309 311 312 316 317 314 316 315 315 322 324 328 328 330 334 335 336 335 334 333 327 322 329 328 327 324 324 328 330 329 327 315 316 321 314 314 320 326 332 333 330 327 323 322 321 319 320 319
316 309 311 311 313 316 312 316 314 316 319 322 325 323 324 325 331 334 334 333 332 334 325 328 327 326 326 327 330 329 327 325 314 320 323 321 319 321 326 331 332 329 326 322 322 321 321 321 319
316 311 314 313 313 313 311 311 313 316 318 315 317 316 317 322 330 330 332 334 332 333 332 330 327 325 325 326 326 325 324 320 314 324 327 324 320 316 325 328 332 330 326 322 322 321 320 320 321
312 310 312 309 311 311 310 310 310 314 313 313 314 317 319 323 327 329 327 327 323 332 332 331 327 326 325 326 326 325 323 320 318 326 328 325 322 318 317 326 328 329 328 324 322 321 320 321 321
307 308 307 308 309 308 311 310 311 313 312 313 311 315 318 320 323 325 323 323 322 320 332 331 329 326 325 326 325 322 320 320 321 325 327 327 323 321 319 321 324 325 327 326 323 323 321 321 321
307 308 308 308 308 309 310 310 312 312 311 310 311 312 316 319 320 321 321 322 323 320 327 329 328 328 327 324 322 317 319 320 322 323 326 328 323 324 321 319 319 319 322 324 324 324 323 322 321
307 308 308 308 309 310 310 308 310 311 310 309 309 311 313 314 317 318 319 319 319 323 322 325 328 327 326 323 322 320 320 324 324 323 326 327 325 324 322 321 321 319 319 322 324 322 322 323 322
308 308 308 308 308 309 308 307 308 306 308 306 306 306 307 309 313 316 318 319 319 318 321 322 324 326 327 326 324 325 322 322 322 323 326 327 327 325 323 321 322 322 321 321 322 322 322 321 323
308 307 307 307 307 308 309 307 305 306 306 305 304 304 304 304 306 311 314 316 318 317 317 318 320 323 326 326 326 325 326 325 325 324 323 325 325 325 325 323 322 322 321 322 321 322 322 322 321
307 306 307 307 307 308 308 308 305 306 305 304 304 303 303 302 302 304 309 312 316 317 317 318 318 321 321 322 326 325 327 327 327 326 324 323 322 322 324 324 324 322 321 322 322 321 321 321 320
304 308 308 308 306 306 307 307 305 305 305 303 303 303 302 302 302 302 303 306 313 316 317 317 318 318 320 319 320 322 324 326 327 327 325 324 322 320 318 325 324 323 322 321 321 321 321 321 321
309 308 307 308 305 305 305 305 304 304 304 303 303 302 302 301 301 302 302 302 304 311 314 313 318 318 318 320 319 320 320 325 325 326 325 324 324 322 320 321 324 323 321 320 321 321 321 321 320
308 308 306 305 306 306 306 305 304 303 303 303 302 302 301 301 301 301 301 301 302 303 309 313 315 317 317 320 317 318 318 321 326 324 324 322 320 320 318 316 314 318 321 315 320 321 321 320 319
307 307 305 304 306 307 307 306 303 303 303 303 302 302 301 301 300 300 299 299 301 302 303 304 306 312 316 320 319 317 317 318 318 323 324 325 324 323 322 321 317 312 314 315 314 316 318 318 319
306 307 306 306 305 306 306 304 305 304 303 303 302 302 301 300 300 299 298 298 300 301 302 302 303 304 308 316 317 319 319 318 318 318 323 324 326 325 325 324 324 321 317 316 316 315 313 314 316
310 306 307 306 305 307 305 304 305 304 303 302 302 301 301 300 300 299 298 297 299 300 301 302 302 302 303 305 314 317 318 318 319 322 320 323 324 325 326 325 324 323 322 320 320 319 319 317 316
307 306 306 306 305 305 306 301 303 304 303 302 302 301 300 300 299 299 298 297 298 300 301 301 302 302 302 302 303 308 316 318 319 319 321 320 322 321 324 325 325 324 324 323 321 321 321 320 320
306 307 304 304 303 299 306 303 302 305 305 302 301 301 300 300 299 298 297 296 296 299 301 301 302 302 302 302 303 303 306 315 317 318 320 320 321 322 324 321 322 323 324 324 323 322 323 323 321
303 300 294 298 298 303 303 303 303 305 303 302 302 302 300 300 299 298 297 296 296 298 300 301 301 302 302 302 302 302 302 305 314 316 318 321 322 320 322 322 323 322 323 322 322 322 323 323 322
305 302 297 300 301 301 302 306 305 304 304 304 303 302 300 300 299 297 296 295 295 297 299 301 302 302 302 301 301 301 302 302 304 313 316 318 321 321 322 323 321 322 323 321 322 323 323 322 322
303 301 303 296 294 305 303 304 304 304 303 303 303 301 300 300 298 296 296 295 295 297 298 300 302 302 303 302 302 301 301 303 303 304 312 315 319 321 321 322 320 322 321 323 323 322 323 322 322
304 304 299 295 295 298 301 302 306 306 304 302 301 300 300 300 298 296 295 295 294 295 297 298 301 302 303 303 303 302 302 301 303 303 304 310 315 318 320 321 321 320 321 323 322 322 320 322 322
303 299 304 302 301 298 295 301 300 303 302 302 302 302 302 301 299 296 295 295 294 296 296 298 301 302 303 303 303 303 303 303 302 302 303 304 308 314 317 319 320 320 320 321 321 321 322 321 321
302 304 303 296 295 297 299 301 300 302 302 303 303 303 302 301 300 296 295 294 294 296 295 297 300 302 303 304 304 304 304 304 303 302 303 304 305 311 315 316 319 319 321 319 321 320 321 321 321
Wind_Speed
1 6 7 6 4 4 2 6 4 8 5 4 2 8 8 5 2 1 11 18 20 29 28 26 23 21 20 20 18 16 16 17 16 16 16 16 15 15 15 16 19 21 21 20 19 17 17 15 15
8 11 8 4 4 2 5 4 6 3 4 7 9 9 6 3 1 6 21 12 17 28 27 26 24 23 20 20 18 16 16 17 17 16 16 16 13 13 12 17 18 24 22 21 18 18 17 14 13
11 11 3 4 4 5 4 3 6 10 17 13 3 10 4 3 7 18 8 15 20 27 27 26 25 24 21 20 18 18 17 16 15 15 15 16 14 11 12 16 21 26 23 22 17 17 17 14 10
5 4 3 4 4 2 2 5 8 8 12 19 9 6 5 3 9 7 9 13 19 27 26 27 26 25 23 21 19 18 17 15 13 13 14 15 14 13 12 15 25 27 20 18 17 17 16 13 12
2 1 3 2 2 1 3 10 8 6 9 18 14 2 4 4 3 7 10 14 19 28 26 26 26 26 24 22 20 19 16 14 13 13 13 14 14 14 14 20 24 20 20 17 14 13 13 14 13
1 1 4 1 4 4 6 21 5 9 11 19 9 4 3 7 3 10 12 16 20 28 26 24 25 24 24 22 22 21 18 14 13 13 14 14 15 18 18 21 19 16 16 14 13 14 14 13 11
4 3 4 2 1 5 6 19 9 6 16 13 10 4 6 5 4 15 17 19 16 23 26 25 25 24 23 23 21 22 19 14 14 16 14 14 16 18 20 20 20 17 16 15 15 16 16 12 11
3 4 5 5 3 3 14 13 9 17 8 3 8 8 7 23 8 14 19 18 19 22 22 26 25 24 24 22 21 19 17 15 18 19 17 14 14 19 21 19 20 17 14 18 17 19 17 10 8
3 5 3 4 4 4 17 8 11 6 10 20 13 14 17 19 13 8 9 17 20 23 24 25 24 24 23 22 20 17 16 18 20 20 18 16 13 15 20 19 19 14 14 17 16 19 20 15 7
7 4 1 3 2 2 7 15 9 6 17 14 18 17 18 19 12 8 8 8 29 16 25 24 23 22 22 22 20 17 17 19 20 20 18 19 14 14 19 19 17 16 16 16 18 17 18 15 8
6 3 3 6 8 6 5 7 15 5 7 9 12 19 18 16 14 6 7 9 26 16 23 24 22 22 22 20 19 18 18 20 22 19 19 20 16 15 16 18 18 18 16 16 16 17 15 13 11
6 6 6 6 9 7 5 4 8 15 4 6 11 13 15 14 13 11 9 6 3 14 9 27 26 24 21 19 20 18 20 21 20 20 21 21 19 16 16 15 16 15 16 16 15 13 14 13 11
6 2 7 10 8 12 13 13 9 8 7 9 13 15 16 16 12 13 14 16 22 9 15 9 25 24 20 19 21 17 22 21 19 21 19 20 19 18 17 14 12 13 14 13 17 15 12 12 9
2 7 8 10 7 7 7 8 3 9 3 10 16 17 16 15 15 9 13 16 17 21 15 16 14 13 27 22 19 18 19 20 21 22 20 18 19 19 18 17 13 11 13 11 13 15 14 12 11
1 3 2 12 13 3 2 6 6 8 6 12 16 18 17 17 14 12 10 11 12 17 18 22 21 12 19 23 24 22 24 22 23 22 21 21 20 18 17 17 15 13 13 12 13 14 13 11 10
5 5 4 6 13 5 3 2 5 9 10 13 14 16 17 18 18 15 10 8 8 11 10 20 18 14 10 3 22 24 26 27 26 24 21 20 20 20 19 20 18 17 13 15 14 14 14 13 14
7 1 4 4 7 5 5 2 4 8 10 12 13 14 14 16 17 19 17 15 9 5 7 7 6 13 16 19 12 4 16 25 26 25 24 22 21 19 18 23 22 19 16 17 18 18 16 16 16
2 3 4 3 6 5 4 2 1 5 10 9 10 11 12 12 14 17 16 15 11 4 4 6 6 4 6 7 10 8 4 22 32 28 26 26 24 22 20 23 23 22 21 20 21 20 18 17 16
2 1 3 4 2 5 1 3 3 2 6 6 7 8 10 10 10 14 15 14 12 9 4 6 2 10 4 7 6 5 7 5 19 28 27 25 23 22 22 22 22 25 26 19 21 21 21 20 17
5 3 5 7 5 4 2 2 3 2 1 2 3 6 8 9 11 14 16 16 16 12 7 6 7 7 7 9 9 7 5 6 3 7 28 24 23 22 20 18 17 19 21 20 19 21 22 20 18
2 3 2 3 8 2 2 2 3 2 3 2 3 5 7 8 11 14 17 18 19 17 10 9 9 9 7 10 10 16 12 7 7 5 8 12 26 23 19 17 20 19 19 19 19 18 18 20 20
2 3 1 4 5 2 3 3 3 4 4 1 3 4 6 7 9 12 16 19 20 19 16 10 9 10 9 7 12 13 20 20 22 21 20 18 22 23 24 23 19 20 20 21 19 17 18 16 17
3 3 2 1 3 2 4 3 5 4 5 5 4 4 5 6 9 12 15 17 18 18 17 14 11 9 8 9 12 13 17 18 27 25 22 22 19 18 22 27 27 19 26 23 20 21 21 19 19
6 1 5 3 2 3 4 3 4 4 3 2 4 5 5 6 9 10 13 15 16 16 14 14 12 11 8 8 10 15 17 20 19 22 24 21 20 17 18 18 24 22 28 26 26 23 23 24 23
6 5 3 5 5 4 4 2 7 3 4 5 5 4 5 7 11 12 14 17 17 16 15 15 14 11 9 9 7 12 17 18 20 20 20 22 18 22 19 21 17 17 19 19 23 23 26 30 28
5 2 4 4 2 5 4 3 3 3 5 5 5 4 4 8 12 13 14 16 17 16 15 14 14 11 10 10 10 10 12 16 18 20 22 18 20 17 17 20 19 18 16 23 20 19 21 22 23
5 5 2 5 2 2 4 6 2 2 4 6 7 6 6 6 10 12 13 16 17 15 15 13 12 12 11 9 8 9 10 12 17 20 21 20 20 21 19 18 16 17 14 12 15 18 20 20 20
2 2 4 3 3 4 5 5 4 4 3 3 5 10 8 7 8 10 12 14 16 15 13 13 11 9 9 9 8 7 7 8 11 15 19 20 20 19 18 14 12 14 13 11 10 10 13 17 13
3 2 2 3 2 3 2 6 5 5 6 6 8 9 9 7 7 8 10 12 14 13 11 10 10 10 8 8 8 7 5 5 6 8 13 15 16 17 15 18 19 12 12 10 10 10 12 13 12
1 2 2 4 5 1 3 7 2 4 7 8 9 8 8 8 7 7 9 10 12 11 11 11 11 11 9 8 8 7 6 4 3 1 4 10 12 12 13 13 11 10 14 8 10 9 10 10 8
Wind_Direction
146 154 154 152 68 63 233 258 280 286 313 298 30 102 112 96 37 238 142 156 172 169 172 173 174 175 170 168 166 162 160 160 157 154 153 149 140 139 153 146 144 145 139 130 123 116 110 100 97
131 139 141 100 88 77 261 262 322 266 335 305 87 103 63 85 52 156 151 162 176 174 175 174 178 174 171 169 166 164 162 164 162 160 159 161 149 139 141 163 154 151 142 134 126 120 111 102 97
135 144 148 107 118 183 216 307 284 338 22 14 89 59 55 21 119 155 156 170 178 179 178 177 177 175 172 167 164 162 157 161 163 164 162 164 166 154 141 156 157 154 140 130 126 122 116 109 103
142 143 89 105 216 312 360 309 316 351 359 11 2 68 74 66 159 190 175 179 187 182 178 175 173 176 174 170 165 166 166 167 172 177 176 170 169 165 153 157 159 157 141 132 129 123 114 120 113
127 160 64 85 19 140 329 343 8 4 357 13 17 53 58 82 226 220 190 191 193 180 176 174 174 177 176 173 173 175 173 171 178 179 181 181 169 164 153 152 161 153 140 128 125 121 123 128 126
199 62 62 178 125 3 344 356 72 26 27 20 27 19 47 114 195 188 180 187 186 178 175 172 175 179 177 178 175 175 176 181 182 183 180 176 167 160 153 159 162 154 141 138 134 129 130 127 128
103 83 163 41 72 20 339 348 30 22 31 8 2 49 11 112 189 197 197 179 186 188 179 176 177 177 181 181 180 177 181 187 179 163 161 159 158 156 157 166 165 160 153 151 144 134 127 122 127
41 80 35 26 352 34 339 348 10 30 40 159 39 13 351 332 308 242 192 189 183 192 192 181 180 179 181 181 183 187 189 193 176 169 167 160 154 162 163 166 167 161 156 154 147 135 125 105 122
355 53 41 359 19 308 355 0 18 28 62 49 45 20 347 345 295 272 263 174 203 196 191 190 184 182 184 186 187 199 197 184 180 176 174 167 158 162 169 167 170 164 157 156 151 145 137 137 130
61 83 75 307 322 334 22 34 346 34 35 10 3 4 359 1 2 287 320 251 337 192 195 191 186 187 187 189 190 202 196 184 177 174 173 171 167 156 172 172 171 163 160 164 159 151 145 143 128
39 92 290 346 351 353 358 37 37 12 36 17 351 355 2 358 10 17 21 286 293 340 165 195 191 187 192 196 202 202 192 183 176 178 177 179 177 164 153 176 175 173 167 166 168 158 156 155 145
95 69 62 338 2 31 13 79 53 53 72 27 14 10 15 21 29 37 34 31 27 327 164 178 186 191 200 205 199 198 186 180 181 183 184 185 181 172 159 170 180 184 182 179 166 166 165 166 163
75 48 47 26 46 64 76 76 94 59 51 27 24 25 31 38 49 61 57 59 57 31 40 66 189 189 188 201 192 189 186 186 186 185 183 186 184 182 171 169 174 178 182 184 174 179 185 190 198
97 81 53 21 36 62 83 21 111 3 45 46 33 31 28 31 39 60 62 51 46 33 2 359 29 165 183 185 204 201 196 190 189 189 185 181 192 192 191 178 183 182 177 179 186 187 193 212 221
81 83 25 12 353 59 139 27 4 28 82 55 48 44 34 28 31 34 32 46 42 42 14 13 20 28 181 181 192 208 195 199 197 195 194 189 191 200 203 192 190 181 191 179 177 183 195 205 221
28 54 26 343 13 357 53 281 347 63 69 55 47 45 42 31 24 25 10 16 43 60 23 336 332 347 8 66 189 206 204 204 204 203 202 201 204 209 208 203 204 188 201 196 194 203 208 214 224
10 8 358 309 19 341 38 212 342 59 75 62 52 51 47 32 18 15 13 12 34 51 124 83 355 297 302 332 305 122 220 208 202 205 208 208 209 208 210 208 206 201 206 213 210 210 215 225 228
315 3 324 289 323 353 66 185 307 57 73 63 50 43 40 40 20 7 5 6 12 7 313 22 138 245 300 272 296 271 355 212 209 204 212 213 212 210 212 212 213 211 214 220 212 215 219 228 237
188 109 323 293 263 5 27 198 226 67 73 62 57 42 41 42 22 10 6 6 1 3 304 296 128 180 215 194 82 217 309 57 198 206 202 210 208 211 208 210 217 218 221 225 218 220 225 227 232
57 45 339 288 290 344 287 295 200 222 89 64 63 52 44 40 21 17 11 12 8 356 347 304 295 265 191 176 182 128 94 262 351 169 211 208 205 206 208 209 214 221 220 219 219 221 223 226 227
67 104 305 249 317 288 327 4 206 241 150 95 34 34 40 29 18 11 9 8 6 2 351 327 301 285 252 223 210 201 181 169 169 254 212 230 207 215 211 223 222 222 219 221 222 228 232 235 234
159 190 318 318 2 323 34 279 252 207 213 243 309 353 13 18 11 3 4 4 2 359 355 340 304 286 279 246 234 216 214 207 214 230 223 216 212 221 223 230 229 231 230 229 230 237 240 239 238
230 280 243 133 317 347 341 71 269 132 243 237 260 301 342 360 3 1 358 355 356 356 355 347 330 311 286 266 246 229 227 218 218 225 233 228 220 215 228 237 230 244 236 242 239 243 239 246 248
296 91 46 55 39 30 278 108 277 204 225 200 227 280 309 340 355 356 354 353 352 355 354 350 342 329 321 283 252 241 232 227 229 222 230 220 237 230 225 234 236 239 242 244 246 249 249 251 246
28 50 358 2 9 226 338 13 246 222 199 206 232 273 296 330 342 349 349 351 353 354 356 355 349 339 332 317 281 245 239 232 228 231 226 228 223 237 225 228 235 238 239 242 250 247 261 248 245
339 91 139 201 321 293 314 242 273 214 192 217 238 251 261 319 335 338 340 343 347 352 352 0 355 350 344 332 309 275 241 234 230 227 230 229 226 225 226 228 234 249 248 247 251 248 257 246 248
312 37 144 98 68 303 273 295 278 223 264 248 239 216 243 304 324 330 333 337 342 347 348 356 356 354 348 348 340 322 286 252 235 231 232 230 229 224 230 223 236 246 251 250 273 251 263 246 252
51 184 41 11 45 317 302 292 252 248 187 166 179 217 241 279 310 323 330 336 341 343 347 350 354 358 356 354 351 342 330 300 260 237 229 230 227 226 227 224 250 239 241 242 247 257 250 257 241
0 360 55 112 121 153 288 274 218 225 197 219 227 231 247 267 304 322 327 333 341 340 344 353 357 3 2 357 357 351 341 314 300 265 233 226 224 224 222 229 230 234 223 227 231 252 241 242 243
242 224 143 123 270 198 168 274 295 251 223 236 255 249 256 267 293 308 318 329 339 344 348 353 352 358 9 7 7 7 4 1 341 303 220 209 210 213 218 224 232 248 199 256 239 244 243 233 254